This demonstration page uses our WeatherBlox Daily Observations layout. Learn more.

Left ArrowRight Arrow

38.83388, -104.82136

Hourly Observations for January 27, 2022

Temp ( °F °C ) Dew Point ( °F °C ) Humidity (%) Winds ( mph kmh ) Pressure ( in mb ) Visibility ( mi km ) Precip ( " mm )
12:58 am 00:58 Cloudy 26 -3.4 11 -11.9 52 52 Calm 29.86 1011 10 16 0.00 0.00
1:58 am 01:58 Cloudy 27 -2.6 7 -13.8 42 42 NE 5 7 29.85 1011 10 16 0.00 0.00
2:58 am 02:58 Cloudy 25 -4.1 9 -12.8 51 51 Calm 29.88 1012 10 16 0.00 0.00
3:58 am 03:58 Cloudy 27 -2.7 4 -15.4 37 37 SE 10 17 29.86 1011 10 16 0.00 0.00
4:58 am 04:58 Cloudy 24 -4.5 9 -12.9 52 52 Calm 29.90 1013 10 16 0.00 0.00
5:58 am 05:58 Cloudy 24 -4.2 8 -13.3 50 50 Calm 29.92 1013 10 16 0.00 0.00
6:58 am 06:58 Cloudy 26 -3.6 7 -13.8 45 45 E 3 6 29.98 1015 10 16 0.00 0.00
7:33 am 07:33 Cloudy with Light Snow 25 -4 9 -13 50 50 SE 7 11 29.98 1015 10 16 0.00 0.00
7:43 am 07:43 Cloudy 25 -4 10 -12 54 54 ESE 6 9 29.99 1016 9 14 0.00 0.00
7:58 am 07:58 Cloudy 25 -4 10 -12.4 52 52 E 6 9 30.02 1017 10 16 0.00 0.00
8:29 am 08:29 Cloudy with Light Snow 25 -4 10 -12 54 54 E 5 7 30.03 1017 10 16 0.00 0.00
8:39 am 08:39 Cloudy 25 -4 14 -10 63 63 NE 3 6 30.04 1017 9 14 0.00 0.00
8:41 am 08:41 Cloudy with Light Snow 23 -5 14 -10 68 68 Calm 30.05 1018 9 14 0.00 0.00
8:56 am 08:56 Cloudy with Light Snow 23 -5 16 -9 74 74 E 3 6 30.05 1018 9 14 0.00 0.00
8:58 am 08:58 Cloudy with Light Snow 23 -5.1 15 -9.2 73 73 E 3 6 30.05 1018 8 13 0.00 0.00
9:56 am 09:56 Cloudy with Light Snow 23 -5 17 -8.6 76 76 ESE 7 11 30.07 1018 7 11 0.00 0.00
10:01 am 10:01 Cloudy with Light Snow 23 -5 18 -8 80 80 E 7 11 30.08 1019 7 11 0.00 0.00
10:21 am 10:21 Cloudy with Light Snow 23 -5 18 -8 80 80 E 6 9 30.08 1019 6 10 0.00 0.00
10:56 am 10:56 Cloudy with Light Snow 23 -4.9 20 -6.6 88 88 Calm 30.11 1020 2 3 0.00 0.00
11:46 am 11:46 Cloudy with Light Snow 25 -4 21 -6 86 86 NNW 5 7 30.11 1020 2 3 0.00 0.00
11:56 am 11:56 Cloudy with Light Snow 24 -4.4 21 -6.2 87 87 NW 7 11 30.11 1020 3 5 0.01 0.25
12:06 pm 12:06 Cloudy with Light Snow 23 -5 19 -7 86 86 WNW 17 28 30.11 1020 2 4 0.00 0.00
12:11 pm 12:11 Cloudy with Snow 21 -6 19 -7 93 93 WNW 14 22 30.13 1020 3 5 0.00 0.00
12:13 pm 12:13 Cloudy with Light Snow 21 -6 19 -7 93 93 WNW 10 17 30.13 1020 1 1 0.00 0.00
12:32 pm 12:32 Mostly Cloudy with Light Snow 21 -6 19 -7 93 93 W 10 17 30.13 1020 7 11 0.00 0.00
12:37 pm 12:37 Mostly Cloudy with Light Snow 23 -5 19 -7 86 86 W 13 20 30.11 1020 7 11 0.00 0.00
12:52 pm 12:52 Cloudy with Light Snow 23 -5 18 -8 80 80 W 17 28 30.10 1019 5 8 0.00 0.00
12:58 pm 12:58 Cloudy with Light Snow 22 -5.4 18 -8 82 82 W 18 30 30.11 1020 2 2 0.00 0.00
1:58 pm 13:58 Cloudy with Light Snow 22 -5.6 18 -7.6 86 86 WNW 15 24 30.12 1020 1 2 0.00 0.00
2:33 pm 14:33 Cloudy with Light Snow 21 -6 18 -8 86 86 WNW 15 24 30.16 1021 2 3 0.00 0.00
2:38 pm 14:38 Cloudy with Light Snow 21 -6 18 -8 86 86 WNW 14 22 30.16 1021 2 4 0.00 0.00
2:48 pm 14:48 Cloudy with Light Snow 21 -6 19 -7 93 93 W 14 22 30.16 1021 5 8 0.00 0.00
2:53 pm 14:53 Cloudy with Light Snow 21 -6 18 -8 86 86 W 12 19 30.17 1022 4 6 0.00 0.00
2:58 pm 14:58 Cloudy with Light Snow 22 -5.7 18 -7.8 85 85 WNW 12 19 30.17 1022 3 4 0.00 0.00
3:03 pm 15:03 Cloudy with Light Snow 21 -6 18 -8 86 86 W 16 26 30.17 1022 2 4 0.00 0.00
3:38 pm 15:38 Cloudy with Light Snow 21 -6 18 -8 86 86 WNW 15 24 30.17 1022 3 4 0.00 0.00
3:43 pm 15:43 Cloudy with Light Snow 21 -6 18 -8 86 86 WNW 17 28 30.17 1022 5 8 0.00 0.00
3:48 pm 15:48 Windy with Snow Likely 19 -7 18 -8 93 93 WNW 21 33 30.20 1023 8 13 0.00 0.00
3:58 pm 15:58 Cloudy with Light Snow 20 -6.5 18 -7.9 90 90 W 17 28 30.19 1022 9 14 0.00 0.00
4:08 pm 16:08 Cloudy with Light Snow 19 -7 18 -8 93 93 W 15 24 30.20 1023 9 14 0.00 0.00
4:11 pm 16:11 Mostly Cloudy 19 -7 16 -9 86 86 W 15 24 30.20 1023 9 14 0.00 0.00
4:16 pm 16:16 Cloudy with Light Snow 19 -7 16 -9 86 86 W 16 26 30.20 1023 9 14 0.00 0.00
4:19 pm 16:19 Mostly Cloudy 19 -7 16 -9 86 86 W 16 26 30.20 1023 9 14 0.00 0.00
4:58 pm 16:58 Sunny 19 -7 12 -11.2 72 72 W 16 26 30.22 1023 10 16 0.00 0.00
5:58 pm 17:58 Clear 20 -6.9 9 -12.8 63 63 W 3 6 30.25 1024 10 16 0.00 0.00
6:58 pm 18:58 Mostly Clear 19 -7.1 13 -10.3 78 78 SSE 7 11 30.25 1025 10 16 0.00 0.00
7:58 pm 19:58 Clear 17 -8.1 11 -11.9 74 74 Calm 30.28 1026 10 16 0.00 0.00
8:58 pm 20:58 Clear 16 -9 10 -12.5 76 76 WSW 5 7 30.30 1026 10 16 0.00 0.00
9:58 pm 21:58 Clear 16 -8.9 8 -13.4 70 70 WSW 3 6 30.65 1038 10 16 0.00 0.00
10:58 pm 22:58 Clear 16 -8.8 7 -14 66 66 Calm 30.65 1038 10 16 0.00 0.00
11:58 pm 23:58 Clear 16 -8.7 6 -14.5 63 63 Calm 30.64 1038 10 16 0.00 0.00

Powered by AerisWeather